owner,sensor,date,latitude,longitude,vertical_datum,mass_concentration_of_oxygen_in_sea_water,qcFlag 
SCCF RECON,ioos:station:SCCF:11:1,2015-10-01T00:00:00Z,26.4679,-82.0631,2.105,6.23,1111122 
SCCF RECON,ioos:station:SCCF:11:1,2015-10-01T00:15:00Z,26.4679,-82.0631,2.1,6.31,1111122 
SCCF RECON,ioos:station:SCCF:11:1,2015-10-01T00:30:00Z,26.4679,-82.0631,2.09,6.22,1111122 
SCCF RECON,ioos:station:SCCF:11:1,2015-10-01T00:45:00Z,26.4679,-82.0631,2.09,6.24,1111122 
SCCF RECON,ioos:station:SCCF:11:1,2015-10-01T01:00:00Z,26.4679,-82.0631,2.08,6.18,1111122 
SCCF RECON,ioos:station:SCCF:11:1,2015-10-01T01:15:00Z,26.4679,-82.0631,2.07,5.99,1111122 
SCCF RECON,ioos:station:SCCF:11:1,2015-10-01T01:30:00Z,26.4679,-82.0631,2.07,6.19,1111122 
SCCF RECON,ioos:station:SCCF:11:1,2015-10-01T01:45:00Z,26.4679,-82.0631,2.06,6.13,1111122 
SCCF RECON,ioos:station:SCCF:11:1,2015-10-01T02:00:00Z,26.4679,-82.0631,2.05,5.98,1111122 
SCCF RECON,ioos:station:SCCF:11:1,2015-10-01T02:15:00Z,26.4679,-82.0631,2.041,5.79,1111122 
SCCF RECON,ioos:station:SCCF:11:1,2015-10-01T02:30:00Z,26.4679,-82.0631,2.04,5.68,1111122 
SCCF RECON,ioos:station:SCCF:11:1,2015-10-01T02:45:00Z,26.4679,-82.0631,2.03,5.74,1111122 
SCCF RECON,ioos:station:SCCF:11:1,2015-10-01T03:00:00Z,26.4679,-82.0631,2.03,5.78,1111122 
SCCF RECON,ioos:station:SCCF:11:1,2015-10-01T03:15:00Z,26.4679,-82.0631,2.02,5.74,1111122 
SCCF RECON,ioos:station:SCCF:11:1,2015-10-01T03:30:00Z,26.4679,-82.0631,2.018,5.65,1111122 
SCCF RECON,ioos:station:SCCF:11:1,2015-10-01T03:45:00Z,26.4679,-82.0631,2.02,5.49,1111122 
SCCF RECON,ioos:station:SCCF:11:1,2015-10-01T04:00:00Z,26.4679,-82.0631,2.01,5.67,1111122 
SCCF RECON,ioos:station:SCCF:11:1,2015-10-01T04:15:00Z,26.4679,-82.0631,2.01,5.51,1111122 
SCCF RECON,ioos:station:SCCF:11:1,2015-10-01T04:30:00Z,26.4679,-82.0631,2.01,4.91,1111122 
SCCF RECON,ioos:station:SCCF:11:1,2015-10-01T04:45:00Z,26.4679,-82.0631,2.01,4.99,1111122 
SCCF RECON,ioos:station:SCCF:11:1,2015-10-01T05:00:00Z,26.4679,-82.0631,2.01,5.1,1111122 
SCCF RECON,ioos:station:SCCF:11:1,2015-10-01T05:15:00Z,26.4679,-82.0631,2.01,5.16,1111122 
SCCF RECON,ioos:station:SCCF:11:1,2015-10-01T05:30:00Z,26.4679,-82.0631,2.018,5.25,1111122 
SCCF RECON,ioos:station:SCCF:11:1,2015-10-01T05:45:00Z,26.4679,-82.0631,2.02,5.32,1111122 
SCCF RECON,ioos:station:SCCF:11:1,2015-10-01T06:00:00Z,26.4679,-82.0631,2.03,5.34,1111122 
SCCF RECON,ioos:station:SCCF:11:1,2015-10-01T06:15:00Z,26.4679,-82.0631,2.03,5.17,1111122 
SCCF RECON,ioos:station:SCCF:11:1,2015-10-01T06:30:00Z,26.4679,-82.0631,2.04,5.11,1111122 
SCCF RECON,ioos:station:SCCF:11:1,2015-10-01T06:45:00Z,26.4679,-82.0631,2.04,5.11,1111122 
SCCF RECON,ioos:station:SCCF:11:1,2015-10-01T07:00:00Z,26.4679,-82.0631,2.04,4.4,1111122 
SCCF RECON,ioos:station:SCCF:11:1,2015-10-01T07:15:00Z,26.4679,-82.0631,2.05,4.7,1111122 
SCCF RECON,ioos:station:SCCF:11:1,2015-10-01T07:30:00Z,26.4679,-82.0631,2.05,5.06,1111122 
SCCF RECON,ioos:station:SCCF:11:1,2015-10-01T07:45:00Z,26.4679,-82.0631,2.06,5.11,1111122 
SCCF RECON,ioos:station:SCCF:11:1,2015-10-01T08:00:00Z,26.4679,-82.0631,2.051,5.31,1111122 
SCCF RECON,ioos:station:SCCF:11:1,2015-10-01T08:15:00Z,26.4679,-82.0631,2.06,5.19,1111122 
SCCF RECON,ioos:station:SCCF:11:1,2015-10-01T08:30:00Z,26.4679,-82.0631,2.07,5.29,1111122 
SCCF RECON,ioos:station:SCCF:11:1,2015-10-01T08:45:00Z,26.4679,-82.0631,2.07,5.25,1111122 
SCCF RECON,ioos:station:SCCF:11:1,2015-10-01T09:00:00Z,26.4679,-82.0631,2.07,5.19,1111122 
SCCF RECON,ioos:station:SCCF:11:1,2015-10-01T09:15:00Z,26.4679,-82.0631,2.08,5.03,1111122 
SCCF RECON,ioos:station:SCCF:11:1,2015-10-01T09:30:00Z,26.4679,-82.0631,2.079,5.0,1111122 
SCCF RECON,ioos:station:SCCF:11:1,2015-10-01T09:45:00Z,26.4679,-82.0631,2.075,4.96,1111122 
SCCF RECON,ioos:station:SCCF:11:1,2015-10-01T10:00:00Z,26.4679,-82.0631,2.08,4.76,1111122 
SCCF RECON,ioos:station:SCCF:11:1,2015-10-01T10:15:00Z,26.4679,-82.0631,2.08,4.66,1111122 
SCCF RECON,ioos:station:SCCF:11:1,2015-10-01T10:30:00Z,26.4679,-82.0631,2.073,4.57,1111122 
SCCF RECON,ioos:station:SCCF:11:1,2015-10-01T10:45:00Z,26.4679,-82.0631,2.07,4.58,1111122 
SCCF RECON,ioos:station:SCCF:11:1,2015-10-01T11:00:00Z,26.4679,-82.0631,2.07,4.57,1111122 
SCCF RECON,ioos:station:SCCF:11:1,2015-10-01T11:15:00Z,26.4679,-82.0631,2.07,4.53,1111122 
SCCF RECON,ioos:station:SCCF:11:1,2015-10-01T11:30:00Z,26.4679,-82.0631,2.06,4.57,1111122 
SCCF RECON,ioos:station:SCCF:11:1,2015-10-01T11:45:00Z,26.4679,-82.0631,2.06,4.58,1111122 
SCCF RECON,ioos:station:SCCF:11:1,2015-10-01T12:00:00Z,26.4679,-82.0631,2.05,4.61,1111122 
SCCF RECON,ioos:station:SCCF:11:1,2015-10-01T12:15:00Z,26.4679,-82.0631,2.049,4.55,1111122 
SCCF RECON,ioos:station:SCCF:11:1,2015-10-01T12:30:00Z,26.4679,-82.0631,2.04,4.57,1111122 
SCCF RECON,ioos:station:SCCF:11:1,2015-10-01T12:45:00Z,26.4679,-82.0631,2.03,4.54,1111122 
SCCF RECON,ioos:station:SCCF:11:1,2015-10-01T13:00:00Z,26.4679,-82.0631,2.02,4.52,1111122 
SCCF RECON,ioos:station:SCCF:11:1,2015-10-01T13:15:00Z,26.4679,-82.0631,2.01,4.53,1111122 
SCCF RECON,ioos:station:SCCF:11:1,2015-10-01T13:30:00Z,26.4679,-82.0631,2.0,4.52,1111122 
SCCF RECON,ioos:station:SCCF:11:1,2015-10-01T13:45:00Z,26.4679,-82.0631,1.99,4.45,1111122 
SCCF RECON,ioos:station:SCCF:11:1,2015-10-01T14:00:00Z,26.4679,-82.0631,1.98,4.51,1111122 
SCCF RECON,ioos:station:SCCF:11:1,2015-10-01T14:15:00Z,26.4679,-82.0631,1.97,4.43,1111122 
SCCF RECON,ioos:station:SCCF:11:1,2015-10-01T14:30:00Z,26.4679,-82.0631,1.96,4.56,1111122 
SCCF RECON,ioos:station:SCCF:11:1,2015-10-01T14:45:00Z,26.4679,-82.0631,1.95,4.71,1111122 
SCCF RECON,ioos:station:SCCF:11:1,2015-10-01T15:00:00Z,26.4679,-82.0631,1.94,4.79,1111122 
SCCF RECON,ioos:station:SCCF:11:1,2015-10-01T15:15:00Z,26.4679,-82.0631,1.93,4.72,1111122 
SCCF RECON,ioos:station:SCCF:11:1,2015-10-01T15:30:00Z,26.4679,-82.0631,1.92,5.24,1111122 
SCCF RECON,ioos:station:SCCF:11:1,2015-10-01T15:45:00Z,26.4679,-82.0631,1.91,5.01,1111122 
SCCF RECON,ioos:station:SCCF:11:1,2015-10-01T16:00:00Z,26.4679,-82.0631,1.91,5.49,1111122 
SCCF RECON,ioos:station:SCCF:11:1,2015-10-01T16:15:00Z,26.4679,-82.0631,1.91,5.36,1111122 
SCCF RECON,ioos:station:SCCF:11:1,2015-10-01T16:30:00Z,26.4679,-82.0631,1.91,5.09,1111122 
SCCF RECON,ioos:station:SCCF:11:1,2015-10-01T16:45:00Z,26.4679,-82.0631,1.91,5.18,1111122 
SCCF RECON,ioos:station:SCCF:11:1,2015-10-01T17:00:00Z,26.4679,-82.0631,1.901,5.24,1111122 
SCCF RECON,ioos:station:SCCF:11:1,2015-10-01T17:15:00Z,26.4679,-82.0631,1.9,5.38,1111122 
SCCF RECON,ioos:station:SCCF:11:1,2015-10-01T17:30:00Z,26.4679,-82.0631,1.9,5.51,1111122 
SCCF RECON,ioos:station:SCCF:11:1,2015-10-01T17:45:00Z,26.4679,-82.0631,1.91,5.92,1111122 
SCCF RECON,ioos:station:SCCF:11:1,2015-10-01T18:00:00Z,26.4679,-82.0631,1.92,5.65,1111122 
SCCF RECON,ioos:station:SCCF:11:1,2015-10-01T18:15:00Z,26.4679,-82.0631,1.932,5.83,1111122 
SCCF RECON,ioos:station:SCCF:11:1,2015-10-01T18:30:00Z,26.4679,-82.0631,1.94,5.58,1111122 
SCCF RECON,ioos:station:SCCF:11:1,2015-10-01T18:45:00Z,26.4679,-82.0631,1.94,5.59,1111122 
SCCF RECON,ioos:station:SCCF:11:1,2015-10-01T19:00:00Z,26.4679,-82.0631,1.95,5.52,1111122 
SCCF RECON,ioos:station:SCCF:11:1,2015-10-01T19:15:00Z,26.4679,-82.0631,1.95,5.41,1111122 
SCCF RECON,ioos:station:SCCF:11:1,2015-10-01T19:30:00Z,26.4679,-82.0631,1.95,4.85,1111122 
SCCF RECON,ioos:station:SCCF:11:1,2015-10-01T19:45:00Z,26.4679,-82.0631,1.95,5.51,1111122 
SCCF RECON,ioos:station:SCCF:11:1,2015-10-01T20:00:00Z,26.4679,-82.0631,1.96,5.85,1111122 
SCCF RECON,ioos:station:SCCF:11:1,2015-10-01T20:15:00Z,26.4679,-82.0631,1.97,5.9,1111122 
SCCF RECON,ioos:station:SCCF:11:1,2015-10-01T20:30:00Z,26.4679,-82.0631,1.98,5.81,1111122 
SCCF RECON,ioos:station:SCCF:11:1,2015-10-01T20:45:00Z,26.4679,-82.0631,1.99,6.67,1111122 
SCCF RECON,ioos:station:SCCF:11:1,2015-10-01T21:00:00Z,26.4679,-82.0631,2.0,6.93,1111122 
SCCF RECON,ioos:station:SCCF:11:1,2015-10-01T21:15:00Z,26.4679,-82.0631,2.01,7.12,1111122 
SCCF RECON,ioos:station:SCCF:11:1,2015-10-01T21:30:00Z,26.4679,-82.0631,2.01,7.01,1111122 
SCCF RECON,ioos:station:SCCF:11:1,2015-10-01T21:45:00Z,26.4679,-82.0631,2.01,7.65,1111122 
SCCF RECON,ioos:station:SCCF:11:1,2015-10-01T22:00:00Z,26.4679,-82.0631,2.02,7.2,1111122 
SCCF RECON,ioos:station:SCCF:11:1,2015-10-01T22:15:00Z,26.4679,-82.0631,2.01,6.49,1111122 
SCCF RECON,ioos:station:SCCF:11:1,2015-10-01T22:30:00Z,26.4679,-82.0631,2.01,7.43,1111122 
SCCF RECON,ioos:station:SCCF:11:1,2015-10-01T22:45:00Z,26.4679,-82.0631,2.01,7.3,1111122 
SCCF RECON,ioos:station:SCCF:11:1,2015-10-01T23:00:00Z,26.4679,-82.0631,2.01,7.24,1111122 
SCCF RECON,ioos:station:SCCF:11:1,2015-10-01T23:15:00Z,26.4679,-82.0631,2.01,7.79,1111122 
SCCF RECON,ioos:station:SCCF:11:1,2015-10-01T23:30:00Z,26.4679,-82.0631,2.01,7.7,1111122 
SCCF RECON,ioos:station:SCCF:11:1,2015-10-01T23:45:00Z,26.4679,-82.0631,2.01,7.53,1111122 
SCCF RECON,ioos:station:SCCF:11:1,2015-10-02T00:00:00Z,26.4679,-82.0631,2.01,7.4,1111122 
SCCF RECON,ioos:station:SCCF:11:1,2015-10-02T00:15:00Z,26.4679,-82.0631,2.01,7.43,1111122 
SCCF RECON,ioos:station:SCCF:11:1,2015-10-02T00:30:00Z,26.4679,-82.0631,2.01,7.68,1111122 
SCCF RECON,ioos:station:SCCF:11:1,2015-10-02T00:45:00Z,26.4679,-82.0631,2.01,7.6,1111122 
SCCF RECON,ioos:station:SCCF:11:1,2015-10-02T01:00:00Z,26.4679,-82.0631,2.01,7.52,1111122 
SCCF RECON,ioos:station:SCCF:11:1,2015-10-02T01:15:00Z,26.4679,-82.0631,2.0,7.53,1111122 
SCCF RECON,ioos:station:SCCF:11:1,2015-10-02T01:30:00Z,26.4679,-82.0631,2.0,7.23,1111122 
SCCF RECON,ioos:station:SCCF:11:1,2015-10-02T01:45:00Z,26.4679,-82.0631,1.99,6.99,1111122 
SCCF RECON,ioos:station:SCCF:11:1,2015-10-02T02:00:00Z,26.4679,-82.0631,1.981,6.66,1111122 
SCCF RECON,ioos:station:SCCF:11:1,2015-10-02T02:15:00Z,26.4679,-82.0631,1.98,6.74,1111122 
SCCF RECON,ioos:station:SCCF:11:1,2015-10-02T02:30:00Z,26.4679,-82.0631,1.98,6.68,1111122 
SCCF RECON,ioos:station:SCCF:11:1,2015-10-02T02:45:00Z,26.4679,-82.0631,1.97,6.19,1111122 
SCCF RECON,ioos:station:SCCF:11:1,2015-10-02T03:00:00Z,26.4679,-82.0631,1.963,6.4,1111122 
SCCF RECON,ioos:station:SCCF:11:1,2015-10-02T03:15:00Z,26.4679,-82.0631,1.96,6.36,1111122 
SCCF RECON,ioos:station:SCCF:11:1,2015-10-02T03:30:00Z,26.4679,-82.0631,1.95,6.23,1111122 
SCCF RECON,ioos:station:SCCF:11:1,2015-10-02T03:45:00Z,26.4679,-82.0631,1.95,6.05,1111122 
SCCF RECON,ioos:station:SCCF:11:1,2015-10-02T04:00:00Z,26.4679,-82.0631,1.95,6.1,1111122 
SCCF RECON,ioos:station:SCCF:11:1,2015-10-02T04:15:00Z,26.4679,-82.0631,1.949,6.05,1111122 
SCCF RECON,ioos:station:SCCF:11:1,2015-10-02T04:30:00Z,26.4679,-82.0631,1.95,6.09,1111122 
SCCF RECON,ioos:station:SCCF:11:1,2015-10-02T04:45:00Z,26.4679,-82.0631,1.94,6.01,1111122 
SCCF RECON,ioos:station:SCCF:11:1,2015-10-02T05:00:00Z,26.4679,-82.0631,1.95,6.17,1111122 
SCCF RECON,ioos:station:SCCF:11:1,2015-10-02T05:15:00Z,26.4679,-82.0631,1.95,6.15,1111122 
SCCF RECON,ioos:station:SCCF:11:1,2015-10-02T05:30:00Z,26.4679,-82.0631,1.95,5.65,1111122 
SCCF RECON,ioos:station:SCCF:11:1,2015-10-02T05:45:00Z,26.4679,-82.0631,1.96,5.7,1111122 
SCCF RECON,ioos:station:SCCF:11:1,2015-10-02T06:00:00Z,26.4679,-82.0631,1.96,5.46,1111122 
SCCF RECON,ioos:station:SCCF:11:1,2015-10-02T06:15:00Z,26.4679,-82.0631,1.97,5.69,1111122 
SCCF RECON,ioos:station:SCCF:11:1,2015-10-02T06:30:00Z,26.4679,-82.0631,1.97,5.8,1111122 
SCCF RECON,ioos:station:SCCF:11:1,2015-10-02T06:45:00Z,26.4679,-82.0631,1.98,5.96,1111122 
SCCF RECON,ioos:station:SCCF:11:1,2015-10-02T07:00:00Z,26.4679,-82.0631,1.98,5.99,1111122 
SCCF RECON,ioos:station:SCCF:11:1,2015-10-02T07:15:00Z,26.4679,-82.0631,1.98,5.96,1111122 
SCCF RECON,ioos:station:SCCF:11:1,2015-10-02T07:30:00Z,26.4679,-82.0631,1.98,5.88,1111122 
SCCF RECON,ioos:station:SCCF:11:1,2015-10-02T07:45:00Z,26.4679,-82.0631,1.99,5.69,1111122 
SCCF RECON,ioos:station:SCCF:11:1,2015-10-02T08:00:00Z,26.4679,-82.0631,1.99,5.19,1111122 
SCCF RECON,ioos:station:SCCF:11:1,2015-10-02T08:15:00Z,26.4679,-82.0631,2.0,5.73,1111122 
SCCF RECON,ioos:station:SCCF:11:1,2015-10-02T08:30:00Z,26.4679,-82.0631,2.0,5.73,1111122 
SCCF RECON,ioos:station:SCCF:11:1,2015-10-02T08:45:00Z,26.4679,-82.0631,2.0,5.68,1111122 
SCCF RECON,ioos:station:SCCF:11:1,2015-10-02T09:00:00Z,26.4679,-82.0631,2.0,5.74,1111122 
SCCF RECON,ioos:station:SCCF:11:1,2015-10-02T09:15:00Z,26.4679,-82.0631,2.0,5.68,1111122 
SCCF RECON,ioos:station:SCCF:11:1,2015-10-02T09:30:00Z,26.4679,-82.0631,2.0,5.79,1111122 
SCCF RECON,ioos:station:SCCF:11:1,2015-10-02T09:45:00Z,26.4679,-82.0631,2.0,5.69,1111122 
SCCF RECON,ioos:station:SCCF:11:1,2015-10-02T10:00:00Z,26.4679,-82.0631,2.01,5.59,1111122 
SCCF RECON,ioos:station:SCCF:11:1,2015-10-02T10:15:00Z,26.4679,-82.0631,2.0,5.44,1111122 
SCCF RECON,ioos:station:SCCF:11:1,2015-10-02T10:30:00Z,26.4679,-82.0631,2.0,5.35,1111122 
SCCF RECON,ioos:station:SCCF:11:1,2015-10-02T10:45:00Z,26.4679,-82.0631,2.0,5.18,1111122 
SCCF RECON,ioos:station:SCCF:11:1,2015-10-02T11:00:00Z,26.4679,-82.0631,2.0,5.13,1111122 
SCCF RECON,ioos:station:SCCF:11:1,2015-10-02T11:15:00Z,26.4679,-82.0631,2.0,5.04,1111122 
SCCF RECON,ioos:station:SCCF:11:1,2015-10-02T11:30:00Z,26.4679,-82.0631,2.0,5.03,1111122 
SCCF RECON,ioos:station:SCCF:11:1,2015-10-02T11:45:00Z,26.4679,-82.0631,2.0,5.05,1111122 
SCCF RECON,ioos:station:SCCF:11:1,2015-10-02T12:00:00Z,26.4679,-82.0631,1.99,5.09,1111122 
SCCF RECON,ioos:station:SCCF:11:1,2015-10-02T12:15:00Z,26.4679,-82.0631,1.99,5.04,1111122 
SCCF RECON,ioos:station:SCCF:11:1,2015-10-02T12:30:00Z,26.4679,-82.0631,1.99,5.08,1111122 
SCCF RECON,ioos:station:SCCF:11:1,2015-10-02T12:45:00Z,26.4679,-82.0631,1.98,5.06,1111122 
SCCF RECON,ioos:station:SCCF:11:1,2015-10-02T13:00:00Z,26.4679,-82.0631,1.98,5.12,1111122 
SCCF RECON,ioos:station:SCCF:11:1,2015-10-02T13:15:00Z,26.4679,-82.0631,1.97,5.15,1111122 
SCCF RECON,ioos:station:SCCF:11:1,2015-10-02T13:30:00Z,26.4679,-82.0631,1.97,5.16,1111122 
SCCF RECON,ioos:station:SCCF:11:1,2015-10-02T13:45:00Z,26.4679,-82.0631,1.96,5.14,1111122 
SCCF RECON,ioos:station:SCCF:11:1,2015-10-02T14:00:00Z,26.4679,-82.0631,1.96,5.29,1111122 
SCCF RECON,ioos:station:SCCF:11:1,2015-10-02T14:15:00Z,26.4679,-82.0631,1.95,5.36,1111122 
SCCF RECON,ioos:station:SCCF:11:1,2015-10-02T14:30:00Z,26.4679,-82.0631,1.95,5.49,1111122 
SCCF RECON,ioos:station:SCCF:11:1,2015-10-02T14:45:00Z,26.4679,-82.0631,1.94,5.65,1111122 
SCCF RECON,ioos:station:SCCF:11:1,2015-10-02T15:00:00Z,26.4679,-82.0631,1.93,5.65,1111122 
SCCF RECON,ioos:station:SCCF:11:1,2015-10-02T15:15:00Z,26.4679,-82.0631,1.93,5.87,1111122 
SCCF RECON,ioos:station:SCCF:11:1,2015-10-02T15:30:00Z,26.4679,-82.0631,1.92,6.04,1111122 
SCCF RECON,ioos:station:SCCF:11:1,2015-10-02T15:45:00Z,26.4679,-82.0631,1.913,6.1,1111122 
SCCF RECON,ioos:station:SCCF:11:1,2015-10-02T16:00:00Z,26.4679,-82.0631,1.91,5.97,1111122 
SCCF RECON,ioos:station:SCCF:11:1,2015-10-02T16:15:00Z,26.4679,-82.0631,1.9,6.55,1111122 
SCCF RECON,ioos:station:SCCF:11:1,2015-10-02T16:30:00Z,26.4679,-82.0631,1.89,6.28,1111122 
SCCF RECON,ioos:station:SCCF:11:1,2015-10-02T16:45:00Z,26.4679,-82.0631,1.883,6.96,1111122 
SCCF RECON,ioos:station:SCCF:11:1,2015-10-02T17:00:00Z,26.4679,-82.0631,1.88,6.82,1111122 
SCCF RECON,ioos:station:SCCF:11:1,2015-10-02T17:15:00Z,26.4679,-82.0631,1.88,6.76,1111122 
SCCF RECON,ioos:station:SCCF:11:1,2015-10-02T17:30:00Z,26.4679,-82.0631,1.88,6.41,1111122 
SCCF RECON,ioos:station:SCCF:11:1,2015-10-02T17:45:00Z,26.4679,-82.0631,1.88,6.73,1111122 
SCCF RECON,ioos:station:SCCF:11:1,2015-10-02T18:00:00Z,26.4679,-82.0631,1.87,6.76,1111122 
SCCF RECON,ioos:station:SCCF:11:1,2015-10-02T18:15:00Z,26.4679,-82.0631,1.87,6.66,1111122 
SCCF RECON,ioos:station:SCCF:11:1,2015-10-02T18:30:00Z,26.4679,-82.0631,1.87,6.81,1111122 
SCCF RECON,ioos:station:SCCF:11:1,2015-10-02T18:45:00Z,26.4679,-82.0631,1.87,7.32,1111122 
SCCF RECON,ioos:station:SCCF:11:1,2015-10-02T19:00:00Z,26.4679,-82.0631,1.88,7.49,1111122 
SCCF RECON,ioos:station:SCCF:11:1,2015-10-02T19:15:00Z,26.4679,-82.0631,1.9,7.87,1111122 
SCCF RECON,ioos:station:SCCF:11:1,2015-10-02T19:30:00Z,26.4679,-82.0631,1.92,7.15,1111122 
SCCF RECON,ioos:station:SCCF:11:1,2015-10-02T19:45:00Z,26.4679,-82.0631,1.91,7.09,1111122 
SCCF RECON,ioos:station:SCCF:11:1,2015-10-02T20:00:00Z,26.4679,-82.0631,1.91,6.82,1111122 
SCCF RECON,ioos:station:SCCF:11:1,2015-10-02T20:15:00Z,26.4679,-82.0631,1.907,6.7,1111122 
SCCF RECON,ioos:station:SCCF:11:1,2015-10-02T20:30:00Z,26.4679,-82.0631,1.91,6.86,1111122 
SCCF RECON,ioos:station:SCCF:11:1,2015-10-02T20:45:00Z,26.4679,-82.0631,1.91,6.34,1111122 
SCCF RECON,ioos:station:SCCF:11:1,2015-10-02T21:00:00Z,26.4679,-82.0631,1.91,6.51,1111122 
SCCF RECON,ioos:station:SCCF:11:1,2015-10-02T21:15:00Z,26.4679,-82.0631,1.913,5.91,1111122 
SCCF RECON,ioos:station:SCCF:11:1,2015-10-02T21:30:00Z,26.4679,-82.0631,1.92,6.6,1111122 
SCCF RECON,ioos:station:SCCF:11:1,2015-10-02T21:45:00Z,26.4679,-82.0631,1.92,5.86,1111122 
SCCF RECON,ioos:station:SCCF:11:1,2015-10-02T22:00:00Z,26.4679,-82.0631,1.92,6.16,1111122 
SCCF RECON,ioos:station:SCCF:11:1,2015-10-02T22:15:00Z,26.4679,-82.0631,1.93,7.52,1111122 
SCCF RECON,ioos:station:SCCF:11:1,2015-10-02T22:30:00Z,26.4679,-82.0631,1.94,8.13,1111122 
SCCF RECON,ioos:station:SCCF:11:1,2015-10-02T22:45:00Z,26.4679,-82.0631,1.95,8.48,1111122 
SCCF RECON,ioos:station:SCCF:11:1,2015-10-02T23:00:00Z,26.4679,-82.0631,1.95,7.96,1111122 
SCCF RECON,ioos:station:SCCF:11:1,2015-10-02T23:15:00Z,26.4679,-82.0631,1.95,7.95,1111122 
SCCF RECON,ioos:station:SCCF:11:1,2015-10-02T23:30:00Z,26.4679,-82.0631,1.95,7.52,1111122 
SCCF RECON,ioos:station:SCCF:11:1,2015-10-02T23:45:00Z,26.4679,-82.0631,1.95,8.0,1111122 
SCCF RECON,ioos:station:SCCF:11:1,2015-10-03T00:00:00Z,26.4679,-82.0631,1.95,7.97,1111122 
SCCF RECON,ioos:station:SCCF:11:1,2015-10-03T00:15:00Z,26.4679,-82.0631,1.946,7.93,1111122 
SCCF RECON,ioos:station:SCCF:11:1,2015-10-03T00:30:00Z,26.4679,-82.0631,1.94,7.8,1111122 
SCCF RECON,ioos:station:SCCF:11:1,2015-10-03T00:45:00Z,26.4679,-82.0631,1.94,7.68,1111122 
SCCF RECON,ioos:station:SCCF:11:1,2015-10-03T01:00:00Z,26.4679,-82.0631,1.94,7.62,1111122 
SCCF RECON,ioos:station:SCCF:11:1,2015-10-03T01:15:00Z,26.4679,-82.0631,1.934,7.47,1111122 
SCCF RECON,ioos:station:SCCF:11:1,2015-10-03T01:30:00Z,26.4679,-82.0631,1.93,7.31,1111122 
SCCF RECON,ioos:station:SCCF:11:1,2015-10-03T01:45:00Z,26.4679,-82.0631,1.93,7.18,1111122 
SCCF RECON,ioos:station:SCCF:11:1,2015-10-03T02:00:00Z,26.4679,-82.0631,1.93,7.1,1111122 
SCCF RECON,ioos:station:SCCF:11:1,2015-10-03T02:15:00Z,26.4679,-82.0631,1.92,7.08,1111122 
SCCF RECON,ioos:station:SCCF:11:1,2015-10-03T02:30:00Z,26.4679,-82.0631,1.92,6.99,1111122 
SCCF RECON,ioos:station:SCCF:11:1,2015-10-03T02:45:00Z,26.4679,-82.0631,1.92,6.91,1111122 
SCCF RECON,ioos:station:SCCF:11:1,2015-10-03T03:00:00Z,26.4679,-82.0631,1.92,6.98,1111122 
SCCF RECON,ioos:station:SCCF:11:1,2015-10-03T03:15:00Z,26.4679,-82.0631,1.91,6.89,1111122 
SCCF RECON,ioos:station:SCCF:11:1,2015-10-03T03:30:00Z,26.4679,-82.0631,1.91,6.83,1111122 
SCCF RECON,ioos:station:SCCF:11:1,2015-10-03T03:45:00Z,26.4679,-82.0631,1.91,6.39,1111122 
SCCF RECON,ioos:station:SCCF:11:1,2015-10-03T04:00:00Z,26.4679,-82.0631,1.91,6.85,1111122 
SCCF RECON,ioos:station:SCCF:11:1,2015-10-03T04:15:00Z,26.4679,-82.0631,1.91,6.67,1111122 
SCCF RECON,ioos:station:SCCF:11:1,2015-10-03T04:30:00Z,26.4679,-82.0631,1.9,6.27,1111122 
SCCF RECON,ioos:station:SCCF:11:1,2015-10-03T04:45:00Z,26.4679,-82.0631,1.9,6.17,1111122 
SCCF RECON,ioos:station:SCCF:11:1,2015-10-03T05:00:00Z,26.4679,-82.0631,1.9,6.18,1111122 
SCCF RECON,ioos:station:SCCF:11:1,2015-10-03T05:15:00Z,26.4679,-82.0631,1.9,6.51,1111122 
SCCF RECON,ioos:station:SCCF:11:1,2015-10-03T05:30:00Z,26.4679,-82.0631,1.9,6.44,1111122 
SCCF RECON,ioos:station:SCCF:11:1,2015-10-03T05:45:00Z,26.4679,-82.0631,1.9,6.44,1111122 
SCCF RECON,ioos:station:SCCF:11:1,2015-10-03T06:00:00Z,26.4679,-82.0631,1.9,6.59,1111122 
SCCF RECON,ioos:station:SCCF:11:1,2015-10-03T06:15:00Z,26.4679,-82.0631,1.9,6.57,1111122 
SCCF RECON,ioos:station:SCCF:11:1,2015-10-03T06:30:00Z,26.4679,-82.0631,1.9,6.68,1111122 
SCCF RECON,ioos:station:SCCF:11:1,2015-10-03T06:45:00Z,26.4679,-82.0631,1.9,6.54,1111122 
SCCF RECON,ioos:station:SCCF:11:1,2015-10-03T07:00:00Z,26.4679,-82.0631,1.91,6.58,1111122 
SCCF RECON,ioos:station:SCCF:11:1,2015-10-03T07:15:00Z,26.4679,-82.0631,1.91,6.48,1111122 
SCCF RECON,ioos:station:SCCF:11:1,2015-10-03T07:30:00Z,26.4679,-82.0631,1.91,6.31,1111122 
SCCF RECON,ioos:station:SCCF:11:1,2015-10-03T07:45:00Z,26.4679,-82.0631,1.92,6.21,1111122 
SCCF RECON,ioos:station:SCCF:11:1,2015-10-03T08:00:00Z,26.4679,-82.0631,1.92,6.08,1111122 
SCCF RECON,ioos:station:SCCF:11:1,2015-10-03T08:15:00Z,26.4679,-82.0631,1.928,6.18,1111122 
SCCF RECON,ioos:station:SCCF:11:1,2015-10-03T08:30:00Z,26.4679,-82.0631,1.93,5.76,1111122 
SCCF RECON,ioos:station:SCCF:11:1,2015-10-03T08:45:00Z,26.4679,-82.0631,1.93,5.67,1111122 
SCCF RECON,ioos:station:SCCF:11:1,2015-10-03T09:00:00Z,26.4679,-82.0631,1.94,5.49,1111122 
SCCF RECON,ioos:station:SCCF:11:1,2015-10-03T09:15:00Z,26.4679,-82.0631,1.94,5.7,1111122 
SCCF RECON,ioos:station:SCCF:11:1,2015-10-03T09:30:00Z,26.4679,-82.0631,1.95,5.87,1111122 
SCCF RECON,ioos:station:SCCF:11:1,2015-10-03T09:45:00Z,26.4679,-82.0631,1.95,5.89,1111122 
SCCF RECON,ioos:station:SCCF:11:1,2015-10-03T10:00:00Z,26.4679,-82.0631,1.95,5.96,1111122 
SCCF RECON,ioos:station:SCCF:11:1,2015-10-03T10:15:00Z,26.4679,-82.0631,1.95,5.64,1111122 
SCCF RECON,ioos:station:SCCF:11:1,2015-10-03T10:30:00Z,26.4679,-82.0631,1.95,5.94,1111122 
SCCF RECON,ioos:station:SCCF:11:1,2015-10-03T10:45:00Z,26.4679,-82.0631,1.95,5.91,1111122 
SCCF RECON,ioos:station:SCCF:11:1,2015-10-03T11:00:00Z,26.4679,-82.0631,1.96,5.68,1111122 
SCCF RECON,ioos:station:SCCF:11:1,2015-10-03T11:15:00Z,26.4679,-82.0631,1.96,5.69,1111122 
SCCF RECON,ioos:station:SCCF:11:1,2015-10-03T11:30:00Z,26.4679,-82.0631,1.96,5.66,1111122 
SCCF RECON,ioos:station:SCCF:11:1,2015-10-03T11:45:00Z,26.4679,-82.0631,1.96,5.55,1111122 
SCCF RECON,ioos:station:SCCF:11:1,2015-10-03T12:00:00Z,26.4679,-82.0631,1.96,5.45,1111122 
SCCF RECON,ioos:station:SCCF:11:1,2015-10-03T12:15:00Z,26.4679,-82.0631,1.96,5.39,1111122 
SCCF RECON,ioos:station:SCCF:11:1,2015-10-03T12:30:00Z,26.4679,-82.0631,1.956,5.04,1111122 
SCCF RECON,ioos:station:SCCF:11:1,2015-10-03T12:45:00Z,26.4679,-82.0631,1.95,5.11,1111122 
SCCF RECON,ioos:station:SCCF:11:1,2015-10-03T13:00:00Z,26.4679,-82.0631,1.95,5.08,1111122 
SCCF RECON,ioos:station:SCCF:11:1,2015-10-03T13:15:00Z,26.4679,-82.0631,1.95,5.31,1111122 
SCCF RECON,ioos:station:SCCF:11:1,2015-10-03T13:30:00Z,26.4679,-82.0631,1.95,5.3,1111122 
SCCF RECON,ioos:station:SCCF:11:1,2015-10-03T13:45:00Z,26.4679,-82.0631,1.94,5.38,1111122 
SCCF RECON,ioos:station:SCCF:11:1,2015-10-03T14:00:00Z,26.4679,-82.0631,1.94,5.46,1111122 
SCCF RECON,ioos:station:SCCF:11:1,2015-10-03T14:15:00Z,26.4679,-82.0631,1.94,5.47,1111122 
SCCF RECON,ioos:station:SCCF:11:1,2015-10-03T14:30:00Z,26.4679,-82.0631,1.94,5.52,1111122 
SCCF RECON,ioos:station:SCCF:11:1,2015-10-03T14:45:00Z,26.4679,-82.0631,1.94,5.58,1111122 
SCCF RECON,ioos:station:SCCF:11:1,2015-10-03T15:00:00Z,26.4679,-82.0631,1.94,5.61,1111122 
SCCF RECON,ioos:station:SCCF:11:1,2015-10-03T15:15:00Z,26.4679,-82.0631,1.94,5.69,1111122 
SCCF RECON,ioos:station:SCCF:11:1,2015-10-03T15:30:00Z,26.4679,-82.0631,1.93,5.77,1111122 
SCCF RECON,ioos:station:SCCF:11:1,2015-10-03T15:45:00Z,26.4679,-82.0631,1.93,5.81,1111122 
SCCF RECON,ioos:station:SCCF:11:1,2015-10-03T16:00:00Z,26.4679,-82.0631,1.93,5.78,1111122 
SCCF RECON,ioos:station:SCCF:11:1,2015-10-03T16:15:00Z,26.4679,-82.0631,1.93,5.85,1111122 
SCCF RECON,ioos:station:SCCF:11:1,2015-10-03T16:30:00Z,26.4679,-82.0631,1.93,6.0,1111122 
SCCF RECON,ioos:station:SCCF:11:1,2015-10-03T16:45:00Z,26.4679,-82.0631,1.93,6.19,1111122 
SCCF RECON,ioos:station:SCCF:11:1,2015-10-03T17:00:00Z,26.4679,-82.0631,1.93,6.26,1111122 
SCCF RECON,ioos:station:SCCF:11:1,2015-10-03T17:15:00Z,26.4679,-82.0631,1.92,6.54,1111122 